Location: *
(33.3200°N, 8.3381°W)
Time: 01:16:19
(UTC+00:00)

SL-24 R/B - RUBIN 2 - Pass Details

Date: 09 April 2020
Orbit: 569 x 1026 km, 64.6° (Epoch: 06 June)

Event Time Altitude Azimuth Distance (km) Brightness Sun altitude
Rises 19:16:58 0° 202° (SSW) 3,102 7.3 -4.3°
Reaches altitude 10° 19:19:11 10° 200° (SSW) 2,251 6.5 -4.8°
Maximum altitude 19:24:21 73° 116° (ESE) 855 4.1 -5.8°
Drops below altitude 10° 19:30:18 10° 33° (NNE) 2,578 6.5 -7.0°
Sets 19:32:59 0° 31° (NNE) 3,587 7.3 -7.6°
